PRIVATE WETTERSTATION BILLIGHEIM-ALLFELD                       ZURCK
Wetterdaten: Freitag, 17.06.2016
Datum Zeit Temp. A. Temp. A. min Temp. A. max Feuchte A. Luftdruck Regen Wind Richtung Richtung Sonnenschein ET Solar Taupunkt Windchill Windben Empfang
17.06.2016 00:00 14,0 C 13,9 C 14,0 C 91 % 1001,8 hPa 0,0 l/m 1,6 km/h (1 Bft) O-SO 112 0 min 0,000 mm 0 W/m 12,6 C 14,0 C 6,4 km/h (2 Bft) 100 %
17.06.2016 00:10 13,9 C 13,9 C 14,0 C 91 % 1001,7 hPa 0,0 l/m 1,6 km/h (1 Bft) SO 135 0 min 0,000 mm 0 W/m 12,5 C 13,9 C 6,4 km/h (2 Bft) 100 %
17.06.2016 00:20 14,0 C 13,9 C 14,0 C 91 % 1001,8 hPa 0,0 l/m 0,0 km/h (0 Bft) SO 135 0 min 0,000 mm 0 W/m 12,6 C 14,0 C 4,8 km/h (1 Bft) 100 %
17.06.2016 00:30 14,1 C 14,0 C 14,1 C 91 % 1001,6 hPa 0,0 l/m 1,6 km/h (1 Bft) SO 135 0 min 0,000 mm 0 W/m 12,7 C 14,1 C 8,0 km/h (2 Bft) 100 %
17.06.2016 00:40 14,1 C 14,1 C 14,1 C 91 % 1001,7 hPa 0,0 l/m 1,6 km/h (1 Bft) S-SO 157 0 min 0,000 mm 0 W/m 12,7 C 14,1 C 8,0 km/h (2 Bft) 100 %
17.06.2016 00:50 14,1 C 14,1 C 14,1 C 91 % 1001,6 hPa 0,0 l/m 0,0 km/h (0 Bft) N 0 0 min 0,000 mm 0 W/m 12,7 C 14,1 C 0,0 km/h (0 Bft) 100 %
17.06.2016 01:00 13,9 C 13,9 C 14,1 C 91 % 1001,7 hPa 0,2 l/m 1,6 km/h (1 Bft) S-SO 157 0 min 0,000 mm 0 W/m 12,5 C 13,9 C 11,3 km/h (2 Bft) 100 %
17.06.2016 01:10 14,0 C 13,9 C 14,0 C 91 % 1001,7 hPa 0,0 l/m 3,2 km/h (1 Bft) S-SO 157 0 min 0,000 mm 0 W/m 12,6 C 14,0 C 11,3 km/h (2 Bft) 100 %
17.06.2016 01:20 13,9 C 13,9 C 14,0 C 91 % 1001,8 hPa 0,0 l/m 4,8 km/h (1 Bft) S-SO 157 0 min 0,000 mm 0 W/m 12,5 C 13,9 C 14,5 km/h (3 Bft) 100 %
17.06.2016 01:30 13,8 C 13,8 C 13,9 C 91 % 1001,9 hPa 0,0 l/m 4,8 km/h (1 Bft) S-SO 157 0 min 0,000 mm 0 W/m 12,4 C 13,8 C 11,3 km/h (2 Bft) 100 %
17.06.2016 01:40 13,8 C 13,8 C 13,9 C 91 % 1001,7 hPa 0,0 l/m 4,8 km/h (1 Bft) S-SO 157 0 min 0,000 mm 0 W/m 12,4 C 13,8 C 17,7 km/h (3 Bft) 100 %
17.06.2016 01:50 13,7 C 13,7 C 13,8 C 91 % 1001,6 hPa 0,0 l/m 6,4 km/h (2 Bft) S-SO 157 0 min 0,000 mm 0 W/m 12,3 C 13,7 C 16,1 km/h (3 Bft) 100 %
17.06.2016 02:00 13,7 C 13,7 C 13,7 C 91 % 1001,5 hPa 0,0 l/m 3,2 km/h (1 Bft) S-SW 202 0 min 0,000 mm 0 W/m 12,3 C 13,7 C 17,7 km/h (3 Bft) 99 %
17.06.2016 02:10 13,6 C 13,6 C 13,7 C 91 % 1001,5 hPa 0,0 l/m 6,4 km/h (2 Bft) S 180 0 min 0,000 mm 0 W/m 12,2 C 13,6 C 22,5 km/h (4 Bft) 100 %
17.06.2016 02:20 13,4 C 13,4 C 13,6 C 91 % 1001,6 hPa 0,0 l/m 9,7 km/h (2 Bft) S 180 0 min 0,000 mm 0 W/m 12,0 C 11,5 C 20,9 km/h (4 Bft) 99 %
17.06.2016 02:30 13,4 C 13,4 C 13,4 C 91 % 1001,8 hPa 0,0 l/m 6,4 km/h (2 Bft) S 180 0 min 0,000 mm 0 W/m 12,0 C 13,4 C 17,7 km/h (3 Bft) 100 %
17.06.2016 02:40 13,3 C 13,3 C 13,4 C 91 % 1001,9 hPa 0,0 l/m 6,4 km/h (2 Bft) S-SW 202 0 min 0,000 mm 0 W/m 11,9 C 13,3 C 16,1 km/h (3 Bft) 100 %
17.06.2016 02:50 13,2 C 13,2 C 13,3 C 91 % 1002,1 hPa 0,0 l/m 1,6 km/h (1 Bft) S-SW 202 0 min 0,000 mm 0 W/m 11,8 C 13,2 C 9,7 km/h (2 Bft) 100 %
17.06.2016 03:00 13,2 C 13,2 C 13,2 C 91 % 1002,2 hPa 0,0 l/m 4,8 km/h (1 Bft) S-SW 202 0 min 0,000 mm 0 W/m 11,8 C 13,2 C 14,5 km/h (3 Bft) 100 %
17.06.2016 03:10 13,1 C 13,1 C 13,2 C 91 % 1002,3 hPa 0,0 l/m 1,6 km/h (1 Bft) S-SW 202 0 min 0,000 mm 0 W/m 11,7 C 13,1 C 8,0 km/h (2 Bft) 100 %
17.06.2016 03:20 13,0 C 13,0 C 13,1 C 91 % 1002,3 hPa 0,0 l/m 1,6 km/h (1 Bft) S-SW 202 0 min 0,000 mm 0 W/m 11,6 C 13,0 C 8,0 km/h (2 Bft) 100 %
17.06.2016 03:30 13,0 C 13,0 C 13,0 C 91 % 1002,3 hPa 0,2 l/m 0,0 km/h (0 Bft) SW 225 0 min 0,000 mm 0 W/m 11,6 C 13,0 C 6,4 km/h (2 Bft) 100 %
17.06.2016 03:40 12,9 C 12,9 C 13,0 C 91 % 1002,5 hPa 0,0 l/m 1,6 km/h (1 Bft) W-SW 247 0 min 0,000 mm 0 W/m 11,5 C 12,9 C 9,7 km/h (2 Bft) 100 %
17.06.2016 03:50 12,8 C 12,8 C 12,9 C 91 % 1002,5 hPa 0,0 l/m 1,6 km/h (1 Bft) W-SW 247 0 min 0,000 mm 0 W/m 11,4 C 12,8 C 8,0 km/h (2 Bft) 100 %
17.06.2016 04:00 12,7 C 12,7 C 12,8 C 91 % 1002,5 hPa 0,0 l/m 3,2 km/h (1 Bft) SW 225 0 min 0,000 mm 0 W/m 11,3 C 12,7 C 16,1 km/h (3 Bft) 100 %
17.06.2016 04:10 12,5 C 12,5 C 12,7 C 91 % 1002,5 hPa 0,0 l/m 6,4 km/h (2 Bft) W-SW 247 0 min 0,000 mm 0 W/m 11,1 C 12,5 C 20,9 km/h (4 Bft) 100 %
17.06.2016 04:20 12,4 C 12,4 C 12,5 C 91 % 1002,6 hPa 0,0 l/m 6,4 km/h (2 Bft) W-SW 247 0 min 0,000 mm 0 W/m 11,0 C 12,4 C 19,3 km/h (3 Bft) 100 %
17.06.2016 04:30 12,3 C 12,3 C 12,4 C 91 % 1002,7 hPa 0,0 l/m 3,2 km/h (1 Bft) W-SW 247 0 min 0,000 mm 0 W/m 10,9 C 12,3 C 14,5 km/h (3 Bft) 100 %
17.06.2016 04:40 12,3 C 12,3 C 12,3 C 91 % 1002,8 hPa 0,0 l/m 3,2 km/h (1 Bft) SW 225 0 min 0,000 mm 0 W/m 10,9 C 12,3 C 11,3 km/h (2 Bft) 100 %
17.06.2016 04:50 12,3 C 12,3 C 12,3 C 94 % 1002,9 hPa 0,0 l/m 1,6 km/h (1 Bft) S-SW 202 0 min 0,000 mm 0 W/m 11,4 C 12,3 C 9,7 km/h (2 Bft) 100 %
17.06.2016 05:00 12,2 C 12,2 C 12,3 C 91 % 1003,0 hPa 0,0 l/m 3,2 km/h (1 Bft) SW 225 0 min 0,000 mm 0 W/m 10,8 C 12,2 C 9,7 km/h (2 Bft) 100 %
17.06.2016 05:10 12,2 C 12,2 C 12,2 C 91 % 1003,1 hPa 0,0 l/m 3,2 km/h (1 Bft) S-SW 202 0 min 0,000 mm 0 W/m 10,8 C 12,2 C 11,3 km/h (2 Bft) 100 %
17.06.2016 05:20 12,2 C 12,2 C 12,2 C 91 % 1003,3 hPa 0,0 l/m 1,6 km/h (1 Bft) S-SW 202 0 min 0,000 mm 0 W/m 10,8 C 12,2 C 9,7 km/h (2 Bft) 100 %
17.06.2016 05:30 12,3 C 12,2 C 12,3 C 91 % 1003,4 hPa 0,0 l/m 1,6 km/h (1 Bft) SW 225 0 min 0,000 mm 0 W/m 10,9 C 12,3 C 8,0 km/h (2 Bft) 100 %
17.06.2016 05:40 12,3 C 12,3 C 12,3 C 91 % 1003,4 hPa 0,0 l/m 1,6 km/h (1 Bft) S-SW 202 0 min 0,000 mm 0 W/m 10,9 C 12,3 C 8,0 km/h (2 Bft) 100 %
17.06.2016 05:50 12,3 C 12,3 C 12,3 C 91 % 1003,4 hPa 0,0 l/m 1,6 km/h (1 Bft) S-SW 202 0 min 0,000 mm 0 W/m 10,9 C 12,3 C 9,7 km/h (2 Bft) 100 %
17.06.2016 06:00 12,3 C 12,3 C 12,3 C 91 % 1003,4 hPa 0,0 l/m 1,6 km/h (1 Bft) S-SW 202 0 min 0,000 mm 5 W/m 10,9 C 12,3 C 8,0 km/h (2 Bft) 100 %
17.06.2016 06:10 12,3 C 12,3 C 12,3 C 91 % 1003,5 hPa 0,0 l/m 3,2 km/h (1 Bft) S 180 0 min 0,000 mm 9 W/m 10,9 C 12,3 C 9,7 km/h (2 Bft) 99 %
17.06.2016 06:20 12,3 C 12,3 C 12,3 C 91 % 1003,5 hPa 0,0 l/m 1,6 km/h (1 Bft) S 180 0 min 0,000 mm 12 W/m 10,9 C 12,3 C 9,7 km/h (2 Bft) 100 %
17.06.2016 06:30 12,3 C 12,3 C 12,3 C 91 % 1003,6 hPa 0,0 l/m 3,2 km/h (1 Bft) S 180 0 min 0,000 mm 12 W/m 10,9 C 12,3 C 16,1 km/h (3 Bft) 100 %
17.06.2016 06:40 12,3 C 12,3 C 12,3 C 91 % 1003,7 hPa 0,0 l/m 6,4 km/h (2 Bft) S-SW 202 0 min 0,000 mm 14 W/m 10,9 C 12,3 C 17,7 km/h (3 Bft) 100 %
17.06.2016 06:50 12,3 C 12,3 C 12,3 C 91 % 1003,8 hPa 0,0 l/m 9,7 km/h (2 Bft) S-SW 202 0 min 0,000 mm 18 W/m 10,9 C 10,3 C 19,3 km/h (3 Bft) 89 %
17.06.2016 07:00 12,3 C 12,3 C 12,3 C 91 % 1003,8 hPa 0,0 l/m 9,7 km/h (2 Bft) S-SW 202 0 min 0,025 mm 21 W/m 10,9 C 10,3 C 20,9 km/h (4 Bft) 100 %
17.06.2016 07:10 12,3 C 12,3 C 12,3 C 91 % 1004,0 hPa 0,0 l/m 6,4 km/h (2 Bft) S-SW 202 0 min 0,000 mm 21 W/m 10,9 C 12,3 C 14,5 km/h (3 Bft) 100 %
17.06.2016 07:20 12,4 C 12,3 C 12,4 C 91 % 1004,1 hPa 0,0 l/m 6,4 km/h (2 Bft) S-SW 202 0 min 0,000 mm 30 W/m 11,0 C 12,4 C 16,1 km/h (3 Bft) 100 %
17.06.2016 07:30 12,4 C 12,4 C 12,4 C 91 % 1004,2 hPa 0,0 l/m 3,2 km/h (1 Bft) S-SW 202 0 min 0,000 mm 39 W/m 11,0 C 12,4 C 17,7 km/h (3 Bft) 100 %
17.06.2016 07:40 12,5 C 12,4 C 12,5 C 91 % 1004,4 hPa 0,0 l/m 4,8 km/h (1 Bft) SW 225 0 min 0,000 mm 39 W/m 11,1 C 12,5 C 17,7 km/h (3 Bft) 100 %
17.06.2016 07:50 12,6 C 12,5 C 12,6 C 91 % 1004,4 hPa 0,0 l/m 3,2 km/h (1 Bft) SW 225 0 min 0,000 mm 44 W/m 11,2 C 12,6 C 16,1 km/h (3 Bft) 100 %
17.06.2016 08:00 12,6 C 12,6 C 12,6 C 91 % 1004,5 hPa 0,0 l/m 6,4 km/h (2 Bft) W 270 0 min 0,025 mm 51 W/m 11,2 C 12,6 C 19,3 km/h (3 Bft) 100 %
17.06.2016 08:10 12,8 C 12,6 C 12,8 C 91 % 1004,6 hPa 0,0 l/m 3,2 km/h (1 Bft) W 270 0 min 0,000 mm 65 W/m 11,4 C 12,8 C 16,1 km/h (3 Bft) 100 %
17.06.2016 08:20 12,8 C 12,8 C 12,8 C 91 % 1004,6 hPa 0,0 l/m 8,0 km/h (2 Bft) W-SW 247 0 min 0,000 mm 97 W/m 11,4 C 11,8 C 25,7 km/h (4 Bft) 100 %
17.06.2016 08:30 12,9 C 12,8 C 12,9 C 91 % 1004,7 hPa 0,0 l/m 11,3 km/h (2 Bft) W-SW 247 0 min 0,000 mm 127 W/m 11,5 C 10,2 C 27,4 km/h (4 Bft) 100 %
17.06.2016 08:40 13,1 C 12,9 C 13,1 C 91 % 1004,8 hPa 0,0 l/m 9,7 km/h (2 Bft) SW 225 0 min 0,000 mm 113 W/m 11,7 C 11,2 C 20,9 km/h (4 Bft) 100 %
17.06.2016 08:50 13,1 C 13,0 C 13,1 C 91 % 1005,1 hPa 0,0 l/m 11,3 km/h (2 Bft) SW 225 0 min 0,000 mm 111 W/m 11,7 C 10,4 C 24,1 km/h (4 Bft) 100 %
17.06.2016 09:00 13,0 C 13,0 C 13,1 C 91 % 1005,4 hPa 0,0 l/m 9,7 km/h (2 Bft) W-SW 247 0 min 0,051 mm 97 W/m 11,6 C 11,1 C 24,1 km/h (4 Bft) 100 %
17.06.2016 09:10 12,9 C 12,9 C 13,0 C 91 % 1005,5 hPa 0,0 l/m 8,0 km/h (2 Bft) W-SW 247 10 min 0,000 mm 174 W/m 11,5 C 11,9 C 22,5 km/h (4 Bft) 100 %
17.06.2016 09:20 13,0 C 12,9 C 13,1 C 91 % 1005,6 hPa 0,0 l/m 6,4 km/h (2 Bft) W-SW 247 10 min 0,000 mm 162 W/m 11,6 C 13,0 C 24,1 km/h (4 Bft) 100 %
17.06.2016 09:30 13,0 C 12,9 C 13,1 C 91 % 1005,8 hPa 0,0 l/m 9,7 km/h (2 Bft) SW 225 0 min 0,000 mm 123 W/m 11,6 C 11,1 C 25,7 km/h (4 Bft) 99 %
17.06.2016 09:40 13,1 C 12,9 C 13,1 C 91 % 1006,0 hPa 0,0 l/m 9,7 km/h (2 Bft) W-SW 247 10 min 0,000 mm 197 W/m 11,7 C 11,2 C 25,7 km/h (4 Bft) 99 %
17.06.2016 09:50 13,2 C 13,0 C 13,2 C 91 % 1006,1 hPa 0,0 l/m 8,0 km/h (2 Bft) SW 225 10 min 0,000 mm 244 W/m 11,8 C 12,2 C 20,9 km/h (4 Bft) 99 %
17.06.2016 10:00 13,4 C 13,2 C 13,4 C 91 % 1006,3 hPa 0,0 l/m 8,0 km/h (2 Bft) SW 225 10 min 0,076 mm 281 W/m 12,0 C 12,4 C 22,5 km/h (4 Bft) 97 %
17.06.2016 10:10 13,8 C 13,4 C 13,8 C 91 % 1006,2 hPa 0,0 l/m 8,0 km/h (2 Bft) S-SW 202 10 min 0,000 mm 383 W/m 12,4 C 12,8 C 22,5 km/h (4 Bft) 98 %
17.06.2016 10:20 14,1 C 13,8 C 14,1 C 90 % 1006,3 hPa 0,0 l/m 8,0 km/h (2 Bft) SW 225 10 min 0,000 mm 339 W/m 12,5 C 13,2 C 24,1 km/h (4 Bft) 98 %
17.06.2016 10:30 14,1 C 14,1 C 14,1 C 90 % 1006,4 hPa 0,0 l/m 8,0 km/h (2 Bft) SW 225 10 min 0,000 mm 283 W/m 12,5 C 13,2 C 27,4 km/h (4 Bft) 97 %
17.06.2016 10:40 13,9 C 13,9 C 14,1 C 90 % 1006,5 hPa 0,8 l/m 6,4 km/h (2 Bft) SW 225 10 min 0,000 mm 193 W/m 12,3 C 13,9 C 20,9 km/h (4 Bft) 98 %
17.06.2016 10:50 13,6 C 13,6 C 13,9 C 91 % 1006,6 hPa 0,0 l/m 9,7 km/h (2 Bft) W-SW 247 10 min 0,000 mm 202 W/m 12,2 C 11,7 C 22,5 km/h (4 Bft) 97 %
17.06.2016 11:00 13,4 C 13,4 C 13,6 C 91 % 1006,8 hPa 1,0 l/m 8,0 km/h (2 Bft) SW 225 10 min 0,102 mm 216 W/m 12,0 C 12,4 C 25,7 km/h (4 Bft) 98 %
17.06.2016 11:10 13,4 C 13,4 C 13,4 C 91 % 1007,0 hPa 0,0 l/m 11,3 km/h (2 Bft) W-SW 247 10 min 0,000 mm 243 W/m 12,0 C 10,7 C 24,1 km/h (4 Bft) 97 %
17.06.2016 11:20 13,6 C 13,4 C 13,6 C 91 % 1007,1 hPa 0,0 l/m 6,4 km/h (2 Bft) SW 225 10 min 0,000 mm 276 W/m 12,2 C 13,6 C 29,0 km/h (5 Bft) 97 %
17.06.2016 11:30 13,9 C 13,6 C 13,9 C 91 % 1007,1 hPa 0,0 l/m 6,4 km/h (2 Bft) W-SW 247 10 min 0,000 mm 406 W/m 12,5 C 13,9 C 22,5 km/h (4 Bft) 98 %
17.06.2016 11:40 14,4 C 13,9 C 14,4 C 91 % 1007,2 hPa 0,0 l/m 6,4 km/h (2 Bft) SW 225 10 min 0,000 mm 524 W/m 12,9 C 14,4 C 19,3 km/h (3 Bft) 97 %
17.06.2016 11:50 14,5 C 14,4 C 14,5 C 90 % 1007,2 hPa 0,0 l/m 4,8 km/h (1 Bft) SW 225 10 min 0,000 mm 323 W/m 12,9 C 14,5 C 16,1 km/h (3 Bft) 98 %
17.06.2016 12:00 15,4 C 14,5 C 15,4 C 90 % 1007,3 hPa 0,0 l/m 9,7 km/h (2 Bft) W-SW 247 10 min 0,178 mm 1062 W/m 13,8 C 13,7 C 27,4 km/h (4 Bft) 97 %
17.06.2016 12:10 15,6 C 15,4 C 15,6 C 86 % 1007,5 hPa 0,0 l/m 11,3 km/h (2 Bft) W-SW 247 10 min 0,000 mm 200 W/m 13,3 C 13,2 C 27,4 km/h (4 Bft) 98 %
17.06.2016 12:20 16,2 C 15,6 C 16,2 C 85 % 1007,6 hPa 0,0 l/m 8,0 km/h (2 Bft) W-SW 247 10 min 0,000 mm 1055 W/m 13,7 C 15,4 C 22,5 km/h (4 Bft) 97 %
17.06.2016 12:30 16,3 C 16,2 C 16,3 C 83 % 1007,5 hPa 0,0 l/m 8,0 km/h (2 Bft) W-SW 247 10 min 0,000 mm 404 W/m 13,4 C 15,5 C 20,9 km/h (4 Bft) 98 %
17.06.2016 12:40 16,4 C 16,2 C 16,4 C 80 % 1007,8 hPa 0,0 l/m 11,3 km/h (2 Bft) W 270 10 min 0,000 mm 615 W/m 12,9 C 14,1 C 29,0 km/h (5 Bft) 98 %
17.06.2016 12:50 16,3 C 16,3 C 16,4 C 80 % 1008,0 hPa 0,0 l/m 14,5 km/h (3 Bft) W 270 10 min 0,000 mm 1320 W/m 12,8 C 12,9 C 32,2 km/h (5 Bft) 97 %
17.06.2016 13:00 16,6 C 16,3 C 16,7 C 79 % 1008,1 hPa 0,0 l/m 12,9 km/h (3 Bft) W 270 10 min 0,254 mm 1327 W/m 12,9 C 13,8 C 29,0 km/h (5 Bft) 98 %
17.06.2016 13:10 15,8 C 15,8 C 16,6 C 82 % 1008,5 hPa 0,2 l/m 14,5 km/h (3 Bft) W-SW 247 0 min 0,000 mm 65 W/m 12,7 C 12,3 C 40,2 km/h (6 Bft) 97 %
17.06.2016 13:20 15,1 C 15,1 C 15,8 C 86 % 1008,9 hPa 0,4 l/m 8,0 km/h (2 Bft) W 270 0 min 0,000 mm 54 W/m 12,8 C 14,2 C 25,7 km/h (4 Bft) 98 %
17.06.2016 13:30 13,9 C 13,9 C 15,1 C 88 % 1009,2 hPa 1,6 l/m 17,7 km/h (3 Bft) W-SW 247 0 min 0,000 mm 63 W/m 11,9 C 9,0 C 35,4 km/h (5 Bft) 97 %
17.06.2016 13:40 13,4 C 13,4 C 13,9 C 90 % 1009,1 hPa 0,6 l/m 11,3 km/h (2 Bft) SW 225 0 min 0,000 mm 113 W/m 11,8 C 10,7 C 27,4 km/h (4 Bft) 98 %
17.06.2016 13:50 13,4 C 13,4 C 13,4 C 91 % 1009,1 hPa 0,6 l/m 8,0 km/h (2 Bft) W-SW 247 10 min 0,000 mm 213 W/m 12,0 C 12,4 C 30,6 km/h (5 Bft) 98 %
17.06.2016 14:00 13,7 C 13,3 C 13,7 C 91 % 1009,1 hPa 0,2 l/m 3,2 km/h (1 Bft) W-SW 247 10 min 0,076 mm 464 W/m 12,3 C 13,7 C 17,7 km/h (3 Bft) 97 %
17.06.2016 14:10 14,1 C 13,7 C 14,1 C 91 % 1009,2 hPa 0,0 l/m 6,4 km/h (2 Bft) SW 225 10 min 0,000 mm 394 W/m 12,7 C 14,1 C 20,9 km/h (4 Bft) 98 %
17.06.2016 14:20 14,1 C 14,1 C 14,2 C 91 % 1009,4 hPa 0,0 l/m 6,4 km/h (2 Bft) SW 225 10 min 0,000 mm 248 W/m 12,7 C 14,1 C 22,5 km/h (4 Bft) 97 %
17.06.2016 14:30 14,2 C 14,1 C 14,2 C 91 % 1009,3 hPa 0,0 l/m 9,7 km/h (2 Bft) S-SW 202 10 min 0,000 mm 234 W/m 12,8 C 12,4 C 22,5 km/h (4 Bft) 98 %
17.06.2016 14:40 14,3 C 14,2 C 14,3 C 91 % 1009,4 hPa 0,0 l/m 9,7 km/h (2 Bft) S-SW 202 10 min 0,000 mm 403 W/m 12,8 C 12,5 C 24,1 km/h (4 Bft) 97 %
17.06.2016 14:50 15,0 C 14,3 C 15,0 C 91 % 1009,5 hPa 0,0 l/m 3,2 km/h (1 Bft) S-SW 202 10 min 0,000 mm 724 W/m 13,5 C 15,0 C 17,7 km/h (3 Bft) 98 %
17.06.2016 15:00 15,7 C 15,1 C 15,7 C 91 % 1009,6 hPa 0,0 l/m 8,0 km/h (2 Bft) SW 225 10 min 0,203 mm 949 W/m 14,2 C 14,8 C 20,9 km/h (4 Bft) 98 %
17.06.2016 15:10 15,8 C 15,7 C 15,9 C 89 % 1009,6 hPa 0,0 l/m 9,7 km/h (2 Bft) SW 225 10 min 0,000 mm 937 W/m 14,0 C 14,1 C 20,9 km/h (4 Bft) 97 %
17.06.2016 15:20 15,8 C 15,7 C 15,8 C 89 % 1009,5 hPa 0,0 l/m 9,7 km/h (2 Bft) SW 225 10 min 0,000 mm 244 W/m 14,0 C 14,1 C 25,7 km/h (4 Bft) 98 %
17.06.2016 15:30 15,3 C 15,3 C 15,8 C 88 % 1010,0 hPa 0,2 l/m 12,9 km/h (3 Bft) SW 225 0 min 0,000 mm 132 W/m 13,3 C 12,3 C 27,4 km/h (4 Bft) 96 %
17.06.2016 15:40 14,7 C 14,7 C 15,3 C 89 % 1010,2 hPa 0,4 l/m 9,7 km/h (2 Bft) SW 225 0 min 0,000 mm 28 W/m 12,9 C 12,9 C 20,9 km/h (4 Bft) 98 %
17.06.2016 15:50 14,1 C 14,1 C 14,7 C 89 % 1010,2 hPa 0,4 l/m 6,4 km/h (2 Bft) SW 225 0 min 0,000 mm 37 W/m 12,3 C 14,1 C 20,9 km/h (4 Bft) 98 %
17.06.2016 16:00 13,7 C 13,7 C 14,1 C 90 % 1010,2 hPa 0,0 l/m 9,7 km/h (2 Bft) S-SW 202 0 min 0,076 mm 35 W/m 12,1 C 11,8 C 19,3 km/h (3 Bft) 98 %
17.06.2016 16:10 13,3 C 13,3 C 13,7 C 90 % 1010,3 hPa 0,0 l/m 8,0 km/h (2 Bft) S-SW 202 0 min 0,000 mm 35 W/m 11,7 C 12,3 C 17,7 km/h (3 Bft) 97 %
17.06.2016 16:20 13,3 C 13,3 C 13,3 C 90 % 1010,3 hPa 0,0 l/m 4,8 km/h (1 Bft) S-SW 202 0 min 0,000 mm 120 W/m 11,7 C 13,3 C 16,1 km/h (3 Bft) 97 %
17.06.2016 16:30 13,5 C 13,3 C 13,5 C 91 % 1010,3 hPa 0,0 l/m 3,2 km/h (1 Bft) S 180 10 min 0,000 mm 230 W/m 12,1 C 13,5 C 14,5 km/h (3 Bft) 98 %
17.06.2016 16:40 13,8 C 13,5 C 13,8 C 91 % 1010,6 hPa 0,0 l/m 4,8 km/h (1 Bft) SW 225 10 min 0,000 mm 223 W/m 12,4 C 13,8 C 16,1 km/h (3 Bft) 97 %
17.06.2016 16:50 14,1 C 13,8 C 14,1 C 91 % 1010,7 hPa 0,0 l/m 8,0 km/h (2 Bft) SW 225 10 min 0,000 mm 258 W/m 12,7 C 13,2 C 22,5 km/h (4 Bft) 98 %
17.06.2016 17:00 14,3 C 14,1 C 14,3 C 91 % 1010,7 hPa 0,0 l/m 9,7 km/h (2 Bft) S-SW 202 10 min 0,102 mm 269 W/m 12,8 C 12,5 C 22,5 km/h (4 Bft) 97 %
17.06.2016 17:10 14,8 C 14,3 C 14,8 C 91 % 1010,9 hPa 0,0 l/m 11,3 km/h (2 Bft) S-SW 202 10 min 0,000 mm 287 W/m 13,3 C 12,3 C 24,1 km/h (4 Bft) 87 %
17.06.2016 17:20 15,4 C 14,9 C 15,4 C 90 % 1011,0 hPa 0,0 l/m 12,9 km/h (3 Bft) SW 225 10 min 0,000 mm 248 W/m 13,8 C 12,4 C 24,1 km/h (4 Bft) 98 %
17.06.2016 17:30 16,0 C 15,4 C 16,0 C 89 % 1011,1 hPa 0,0 l/m 12,9 km/h (3 Bft) W-SW 247 10 min 0,000 mm 255 W/m 14,2 C 13,1 C 32,2 km/h (5 Bft) 98 %
17.06.2016 17:40 16,3 C 16,0 C 16,3 C 88 % 1011,1 hPa 0,0 l/m 9,7 km/h (2 Bft) SW 225 0 min 0,000 mm 146 W/m 14,3 C 14,7 C 27,4 km/h (4 Bft) 98 %
17.06.2016 17:50 16,5 C 16,3 C 16,5 C 85 % 1011,1 hPa 0,0 l/m 11,3 km/h (2 Bft) SW 225 0 min 0,000 mm 121 W/m 14,0 C 14,3 C 22,5 km/h (4 Bft) 97 %
17.06.2016 18:10 16,5 C 16,3 C 16,6 C 81 % 1011,3 hPa 0,0 l/m 14,9 km/h (3 Bft) W-SW 246 0 min 0,102 mm 116 W/m 13,2 C 13,0 C 29,0 km/h (5 Bft) 99 %
17.06.2016 18:20 16,2 C 16,2 C 16,5 C 82 % 1011,2 hPa 0,0 l/m 11,9 km/h (2 Bft) S-SW 194 0 min 0,000 mm 107 W/m 13,1 C 13,7 C 29,0 km/h (5 Bft) 99 %
17.06.2016 18:30 15,7 C 15,7 C 16,2 C 84 % 1011,3 hPa 0,0 l/m 10,9 km/h (2 Bft) SW 228 0 min 0,000 mm 118 W/m 13,0 C 13,5 C 29,0 km/h (5 Bft) 100 %
17.06.2016 18:40 15,2 C 15,2 C 15,7 C 83 % 1011,3 hPa 0,0 l/m 10,5 km/h (2 Bft) SW 221 0 min 0,000 mm 111 W/m 12,3 C 13,1 C 27,4 km/h (4 Bft) 100 %
17.06.2016 18:50 14,8 C 14,8 C 15,2 C 85 % 1011,2 hPa 0,0 l/m 8,1 km/h (2 Bft) S-SW 204 0 min 0,000 mm 81 W/m 12,3 C 13,8 C 22,5 km/h (4 Bft) 100 %
17.06.2016 19:00 14,4 C 14,4 C 14,8 C 87 % 1011,1 hPa 0,0 l/m 5,1 km/h (1 Bft) W-SW 245 0 min 0,076 mm 70 W/m 12,3 C 14,4 C 17,7 km/h (3 Bft) 99 %
17.06.2016 19:10 14,2 C 14,2 C 14,4 C 88 % 1011,4 hPa 0,0 l/m 3,8 km/h (1 Bft) S-SW 212 0 min 0,000 mm 79 W/m 12,2 C 14,2 C 17,7 km/h (3 Bft) 100 %
17.06.2016 19:20 14,0 C 14,0 C 14,2 C 88 % 1011,4 hPa 0,0 l/m 3,4 km/h (1 Bft) W-SW 250 0 min 0,000 mm 62 W/m 12,0 C 14,0 C 11,3 km/h (2 Bft) 100 %
17.06.2016 19:30 13,9 C 13,9 C 14,0 C 89 % 1011,7 hPa 0,0 l/m 1,0 km/h (0 Bft) W-SW 243 0 min 0,000 mm 67 W/m 12,1 C 13,9 C 9,7 km/h (2 Bft) 100 %
17.06.2016 19:40 13,8 C 13,8 C 13,9 C 89 % 1011,6 hPa 0,0 l/m 0,6 km/h (0 Bft) SW 231 0 min 0,000 mm 142 W/m 12,0 C 13,8 C 9,7 km/h (2 Bft) 100 %
17.06.2016 19:50 13,9 C 13,8 C 13,9 C 89 % 1011,6 hPa 0,0 l/m 0,3 km/h (0 Bft) W 273 0 min 0,000 mm 58 W/m 12,1 C 13,9 C 9,7 km/h (2 Bft) 100 %
17.06.2016 20:00 13,9 C 13,9 C 13,9 C 89 % 1011,8 hPa 0,0 l/m 0,0 km/h (0 Bft) W 276 0 min 0,051 mm 79 W/m 12,1 C 13,9 C 1,6 km/h (1 Bft) 100 %
17.06.2016 20:10 14,0 C 13,9 C 14,0 C 88 % 1011,8 hPa 0,0 l/m 0,5 km/h (0 Bft) W 259 0 min 0,000 mm 56 W/m 12,0 C 14,0 C 6,4 km/h (2 Bft) 100 %
17.06.2016 20:20 14,1 C 14,0 C 14,1 C 89 % 1012,0 hPa 0,0 l/m 0,0 km/h (0 Bft) W 259 0 min 0,000 mm 40 W/m 12,3 C 14,1 C 0,0 km/h (0 Bft) 99 %
17.06.2016 20:30 14,0 C 14,0 C 14,1 C 89 % 1012,2 hPa 0,0 l/m 0,0 km/h (0 Bft) W 259 0 min 0,000 mm 25 W/m 12,2 C 14,0 C 0,0 km/h (0 Bft) 100 %
17.06.2016 20:40 13,8 C 13,8 C 14,0 C 89 % 1012,3 hPa 0,0 l/m 0,0 km/h (0 Bft) W-SW 258 0 min 0,000 mm 23 W/m 12,0 C 13,8 C 0,0 km/h (0 Bft) 100 %
17.06.2016 20:50 13,7 C 13,7 C 13,8 C 89 % 1012,2 hPa 0,0 l/m 0,0 km/h (0 Bft) W-SW 242 0 min 0,000 mm 33 W/m 11,9 C 13,7 C 0,0 km/h (0 Bft) 99 %
17.06.2016 21:00 13,6 C 13,6 C 13,7 C 90 % 1012,2 hPa 0,0 l/m 0,0 km/h (0 Bft) S-SW 196 0 min 0,025 mm 0 W/m 12,0 C 13,6 C 1,6 km/h (1 Bft) 100 %
17.06.2016 21:10 13,6 C 13,6 C 13,6 C 90 % 1012,4 hPa 0,0 l/m 0,0 km/h (0 Bft) N 0 0 min 0,000 mm 0 W/m 12,0 C 13,6 C 0,0 km/h (0 Bft) 97 %
17.06.2016 21:20 13,3 C 13,3 C 13,6 C 90 % 1012,5 hPa 0,0 l/m 0,0 km/h (0 Bft) N 0 0 min 0,000 mm 0 W/m 11,7 C 13,3 C 0,0 km/h (0 Bft) 98 %
17.06.2016 21:30 13,1 C 13,1 C 13,3 C 90 % 1012,6 hPa 0,0 l/m 0,0 km/h (0 Bft) N 0 0 min 0,000 mm 0 W/m 11,5 C 13,1 C 0,0 km/h (0 Bft) 97 %
17.06.2016 21:40 12,7 C 12,7 C 13,1 C 90 % 1012,9 hPa 0,0 l/m 0,0 km/h (0 Bft) N 0 0 min 0,000 mm 0 W/m 11,1 C 12,7 C 0,0 km/h (0 Bft) 97 %
17.06.2016 21:50 12,5 C 12,5 C 12,7 C 90 % 1012,9 hPa 0,0 l/m 0,0 km/h (0 Bft) S-SW 202 0 min 0,000 mm 0 W/m 10,9 C 12,5 C 1,6 km/h (1 Bft) 98 %
17.06.2016 22:00 12,3 C 12,3 C 12,5 C 91 % 1013,1 hPa 0,0 l/m 0,0 km/h (0 Bft) N 0 0 min 0,000 mm 0 W/m 10,9 C 12,3 C 0,0 km/h (0 Bft) 98 %
17.06.2016 22:10 12,3 C 12,2 C 12,3 C 91 % 1013,2 hPa 0,0 l/m 0,0 km/h (0 Bft) S-SO 157 0 min 0,000 mm 0 W/m 10,9 C 12,3 C 1,6 km/h (1 Bft) 98 %
17.06.2016 22:20 12,2 C 12,2 C 12,3 C 91 % 1013,3 hPa 0,0 l/m 0,0 km/h (0 Bft) SO 135 0 min 0,000 mm 0 W/m 10,8 C 12,2 C 1,6 km/h (1 Bft) 88 %
17.06.2016 22:30 11,9 C 11,9 C 12,2 C 91 % 1013,2 hPa 0,0 l/m 0,0 km/h (0 Bft) N 0 0 min 0,000 mm 0 W/m 10,5 C 11,9 C 0,0 km/h (0 Bft) 100 %
17.06.2016 22:40 11,8 C 11,8 C 11,9 C 91 % 1013,2 hPa 0,0 l/m 0,0 km/h (0 Bft) N 0 0 min 0,000 mm 0 W/m 10,4 C 11,8 C 0,0 km/h (0 Bft) 97 %
17.06.2016 22:50 12,1 C 11,8 C 12,1 C 91 % 1013,2 hPa 0,0 l/m 1,6 km/h (1 Bft) SO 135 0 min 0,000 mm 0 W/m 10,7 C 12,1 C 4,8 km/h (1 Bft) 98 %
17.06.2016 23:00 12,0 C 12,0 C 12,1 C 91 % 1013,3 hPa 0,0 l/m 0,0 km/h (0 Bft) N 0 0 min 0,000 mm 0 W/m 10,6 C 12,0 C 0,0 km/h (0 Bft) 100 %
17.06.2016 23:10 11,8 C 11,8 C 12,0 C 91 % 1013,3 hPa 0,0 l/m 0,0 km/h (0 Bft) N 0 0 min 0,000 mm 0 W/m 10,4 C 11,8 C 0,0 km/h (0 Bft) 97 %
17.06.2016 23:20 11,6 C 11,6 C 11,8 C 91 % 1013,2 hPa 0,0 l/m 0,0 km/h (0 Bft) N 0 0 min 0,000 mm 0 W/m 10,2 C 11,6 C 0,0 km/h (0 Bft) 98 %
17.06.2016 23:30 11,5 C 11,5 C 11,6 C 91 % 1013,3 hPa 0,0 l/m 0,0 km/h (0 Bft) N 0 0 min 0,000 mm 0 W/m 10,1 C 11,5 C 0,0 km/h (0 Bft) 98 %
17.06.2016 23:40 11,3 C 11,3 C 11,4 C 91 % 1013,4 hPa 0,0 l/m 0,0 km/h (0 Bft) N 0 0 min 0,000 mm 0 W/m 9,9 C 11,3 C 0,0 km/h (0 Bft) 100 %
17.06.2016 23:50 11,1 C 11,1 C 11,3 C 91 % 1013,5 hPa 0,0 l/m 0,0 km/h (0 Bft) N 0 0 min 0,000 mm 0 W/m 9,7 C 11,1 C 0,0 km/h (0 Bft) 99 %
_ Min-Zeit 23:50 23:50 23:50 13:00 02:00 - 00:20 - - - - - 23:50 13:30 00:50 17:10
Minimum _ 11,1 C 11,1 C 11,3 C 79 % 1001,5 hPa - 0,0 km/h (0 Bft) - - - - - 9,7 C 9,0 C 0,0 km/h (0 Bft) 87 %
_ Max-Zeit 13:00 12:50 13:00 04:50 23:50 13:30 13:30 - - 09:10 13:00 13:00 17:40 12:30 13:10 00:00
Maximum _ 16,7 C 16,3 C 16,7 C 94 % 1013,5 hPa 1,6 l/m 17,7 km/h
W-SW (3 Bft)
- - 10 min 0,254 mm 1327 W/m 14,3 C 15,5 C 40,2 km/h
W-SW (6 Bft)
100 %
Durchschnitt _ 13,6 C 13,5 C 13,7 C 90 % 1007,3 hPa #6,8 l/m 5,4 km/h (1 Bft) SW - #6:40 h #1,422 mm 228 W/m 12,0 C 12,9 C 15,8 km/h (3 Bft) 99 %
PRIVATE WETTERSTATION BILLIGHEIM-ALLFELD - www.neckar-odenwald-wetter.de - Holger Sonntag